Time,TemperatureF,DewpointF,PressureIn,WindDirection,WindDirectionDegrees,WindSpeedMPH,WindSpeedGustMPH,Humidity,HourlyPrecipIn,Conditions,Clouds,dailyrainin,SoftwareType,DateUTC
2013-02-11 00:01:00,41.2,35.4,30.56,WSW,254,10.0,12.0,80,0.00,,,0.00,meteohub,2013-02-11 08:01:00,
2013-02-11 00:06:00,41.4,35.6,30.56,SW,221,7.0,14.0,80,0.00,,,0.00,meteohub,2013-02-11 08:06:00,
2013-02-11 00:11:00,41.4,35.4,30.56,SSW,210,2.0,16.0,79,0.00,,,0.00,meteohub,2013-02-11 08:11:00,
2013-02-11 00:16:00,41.4,35.4,30.56,SW,223,6.0,16.0,79,0.00,,,0.00,meteohub,2013-02-11 08:16:00,
2013-02-11 00:21:00,41.4,35.4,30.56,WSW,241,6.0,16.0,79,0.00,,,0.00,meteohub,2013-02-11 08:21:00,
2013-02-11 00:26:00,41.2,35.2,30.56,WSW,240,9.0,10.0,79,0.00,,,0.00,meteohub,2013-02-11 08:26:00,
2013-02-11 00:31:00,41.2,35.2,30.56,SW,229,7.0,14.0,79,0.00,,,0.00,meteohub,2013-02-11 08:31:00,
2013-02-11 00:37:00,41.2,35.2,30.56,WSW,242,4.0,14.0,79,0.00,,,0.00,meteohub,2013-02-11 08:37:00,
2013-02-11 00:42:00,41.4,35.4,30.56,WSW,242,4.0,14.0,79,0.00,,,0.00,meteohub,2013-02-11 08:42:00,
2013-02-11 00:47:00,41.4,35.4,30.56,SSW,210,6.0,13.0,79,0.00,,,0.00,meteohub,2013-02-11 08:47:00,
2013-02-11 00:52:00,41.4,35.1,30.55,SW,221,12.0,13.0,78,0.00,,,0.00,meteohub,2013-02-11 08:52:00,
2013-02-11 00:57:00,41.5,35.2,30.56,WSW,237,10.0,18.0,78,0.00,,,0.00,meteohub,2013-02-11 08:57:00,
2013-02-11 01:02:00,41.5,35.2,30.56,WSW,242,6.0,18.0,78,0.00,,,0.00,meteohub,2013-02-11 09:02:00,
2013-02-11 01:07:00,41.5,35.2,30.56,WSW,248,6.0,18.0,78,0.00,,,0.00,meteohub,2013-02-11 09:07:00,
2013-02-11 01:12:00,41.5,35.2,30.55,SW,236,10.0,17.0,78,0.00,,,0.00,meteohub,2013-02-11 09:12:00,
2013-02-11 01:17:00,41.5,35.2,30.55,SW,223,9.0,18.0,78,0.00,,,0.00,meteohub,2013-02-11 09:17:00,
2013-02-11 01:22:00,41.5,35.2,30.55,WSW,238,11.0,18.0,78,0.00,,,0.00,meteohub,2013-02-11 09:22:00,
2013-02-11 01:27:00,41.5,35.2,30.55,SW,221,5.0,18.0,78,0.00,,,0.00,meteohub,2013-02-11 09:27:00,
2013-02-11 01:32:00,41.4,35.4,30.56,SW,227,6.0,16.0,79,0.00,,,0.00,meteohub,2013-02-11 09:32:00,
2013-02-11 01:37:00,41.5,35.2,30.55,WSW,237,9.0,16.0,78,0.00,,,0.00,meteohub,2013-02-11 09:37:00,
2013-02-11 01:42:00,41.5,35.2,30.56,WSW,248,12.0,16.0,78,0.00,,,0.00,meteohub,2013-02-11 09:42:00,
2013-02-11 01:47:00,41.7,35.1,30.56,West,261,4.0,18.0,77,0.00,,,0.00,meteohub,2013-02-11 09:47:00,
2013-02-11 01:52:00,41.7,35.1,30.56,WSW,248,8.0,18.0,77,0.00,,,0.00,meteohub,2013-02-11 09:52:00,
2013-02-11 01:57:00,41.7,35.1,30.56,WSW,248,8.0,18.0,77,0.00,,,0.00,meteohub,2013-02-11 09:57:00,
2013-02-11 02:02:00,41.9,35.2,30.56,SW,222,6.0,21.0,77,0.00,,,0.00,meteohub,2013-02-11 10:02:00,
2013-02-11 02:07:00,41.7,35.1,30.57,SW,225,13.0,21.0,77,0.00,,,0.00,meteohub,2013-02-11 10:07:00,
2013-02-11 02:12:00,41.7,35.1,30.57,SW,234,5.0,21.0,77,0.00,,,0.00,meteohub,2013-02-11 10:12:00,
2013-02-11 02:17:00,41.7,35.4,30.57,WSW,242,7.0,18.0,78,0.00,,,0.00,meteohub,2013-02-11 10:17:00,
2013-02-11 02:22:00,41.7,35.4,30.57,West,273,16.0,18.0,78,0.00,,,0.00,meteohub,2013-02-11 10:22:00,
2013-02-11 02:27:00,41.7,35.4,30.57,SSW,210,7.0,18.0,78,0.00,,,0.00,meteohub,2013-02-11 10:27:00,
2013-02-11 02:33:00,41.7,35.1,30.57,WSW,250,14.0,16.0,77,0.00,,,0.00,meteohub,2013-02-11 10:33:00,
2013-02-11 02:38:00,41.7,35.4,30.57,SW,227,6.0,18.0,78,0.00,,,0.00,meteohub,2013-02-11 10:38:00,
2013-02-11 02:43:00,41.9,35.2,30.57,WSW,250,6.0,18.0,77,0.00,,,0.00,meteohub,2013-02-11 10:43:00,
2013-02-11 02:48:00,41.9,34.9,30.57,WSW,253,8.0,18.0,76,0.00,,,0.00,meteohub,2013-02-11 10:48:00,
2013-02-11 02:53:00,42.1,35.1,30.56,South,171,8.0,17.0,76,0.00,,,0.00,meteohub,2013-02-11 10:53:00,
2013-02-11 02:58:00,42.1,35.1,30.56,SW,223,5.0,17.0,76,0.00,,,0.00,meteohub,2013-02-11 10:58:00,
2013-02-11 03:03:00,41.9,34.9,30.56,WSW,257,4.0,21.0,76,0.00,,,0.00,meteohub,2013-02-11 11:03:00,
2013-02-11 03:08:00,41.9,34.9,30.57,SW,214,5.0,21.0,76,0.00,,,0.00,meteohub,2013-02-11 11:08:00,
2013-02-11 03:13:00,41.9,34.9,30.57,West,277,5.0,21.0,76,0.00,,,0.00,meteohub,2013-02-11 11:13:00,
2013-02-11 03:18:00,41.7,34.7,30.57,WSW,241,4.0,16.0,76,0.00,,,0.00,meteohub,2013-02-11 11:18:00,
2013-02-11 03:23:00,41.7,34.7,30.56,SW,234,10.0,16.0,76,0.00,,,0.00,meteohub,2013-02-11 11:23:00,
2013-02-11 03:28:00,41.7,35.1,30.56,SW,233,6.0,16.0,77,0.00,,,0.00,meteohub,2013-02-11 11:28:00,
2013-02-11 03:33:00,41.7,35.1,30.56,WSW,248,14.0,18.0,77,0.00,,,0.00,meteohub,2013-02-11 11:33:00,
2013-02-11 03:38:00,41.7,35.1,30.56,SW,226,19.0,19.0,77,0.00,,,0.00,meteohub,2013-02-11 11:38:00,
2013-02-11 03:44:00,41.9,34.9,30.56,WSW,250,13.0,19.0,76,0.00,,,0.00,meteohub,2013-02-11 11:44:00,
2013-02-11 03:49:00,41.9,34.9,30.56,SW,227,9.0,21.0,76,0.00,,,0.00,meteohub,2013-02-11 11:49:00,
2013-02-11 03:54:00,41.5,34.9,30.56,West,261,11.0,21.0,77,0.00,,,0.00,meteohub,2013-02-11 11:54:00,
2013-02-11 03:59:00,41.5,34.9,30.57,WSW,244,10.0,18.0,77,0.00,,,0.00,meteohub,2013-02-11 11:59:00,
2013-02-11 04:04:00,41.5,34.9,30.56,West,265,10.0,19.0,77,0.00,,,0.00,meteohub,2013-02-11 12:04:00,
2013-02-11 04:09:00,41.5,34.9,30.56,WSW,253,14.0,19.0,77,0.00,,,0.00,meteohub,2013-02-11 12:09:00,
2013-02-11 04:14:00,41.5,34.9,30.56,WSW,250,10.0,19.0,77,0.00,,,0.00,meteohub,2013-02-11 12:14:00,
2013-02-11 04:19:00,41.5,34.9,30.56,WSW,240,11.0,17.0,77,0.00,,,0.00,meteohub,2013-02-11 12:19:00,
2013-02-11 04:24:00,41.5,34.9,30.56,SW,226,9.0,22.0,77,0.00,,,0.00,meteohub,2013-02-11 12:24:00,
2013-02-11 04:29:00,41.5,34.9,30.56,SW,229,6.0,22.0,77,0.00,,,0.00,meteohub,2013-02-11 12:29:00,
2013-02-11 04:34:00,41.4,34.7,30.56,SSW,195,11.0,21.0,77,0.00,,,0.00,meteohub,2013-02-11 12:34:00,
2013-02-11 04:39:00,41.4,34.7,30.56,SW,229,11.0,21.0,77,0.00,,,0.00,meteohub,2013-02-11 12:39:00,
2013-02-11 04:45:00,41.4,34.7,30.56,SW,226,9.0,19.0,77,0.00,,,0.00,meteohub,2013-02-11 12:45:00,
2013-02-11 04:50:00,41.4,34.7,30.56,West,276,9.0,19.0,77,0.00,,,0.00,meteohub,2013-02-11 12:50:00,
2013-02-11 04:55:00,41.4,34.7,30.56,WSW,253,5.0,19.0,77,0.00,,,0.00,meteohub,2013-02-11 12:55:00,
2013-02-11 05:00:00,41.4,34.7,30.56,SW,222,14.0,19.0,77,0.00,,,0.00,meteohub,2013-02-11 13:00:00,
2013-02-11 05:05:00,41.4,34.7,30.56,West,260,9.0,18.0,77,0.00,,,0.00,meteohub,2013-02-11 13:05:00,
2013-02-11 05:10:00,41.4,34.3,30.56,SW,221,10.0,25.0,76,0.00,,,0.00,meteohub,2013-02-11 13:10:00,
2013-02-11 05:15:00,41.5,34.5,30.56,SW,225,13.0,25.0,76,0.00,,,0.00,meteohub,2013-02-11 13:15:00,
2013-02-11 05:20:00,41.5,34.5,30.56,SW,218,8.0,25.0,76,0.00,,,0.00,meteohub,2013-02-11 13:20:00,
2013-02-11 05:25:00,41.5,34.5,30.55,South,191,9.0,22.0,76,0.00,,,0.00,meteohub,2013-02-11 13:25:00,
2013-02-11 05:30:00,41.5,34.5,30.55,South,183,9.0,21.0,76,0.00,,,0.00,meteohub,2013-02-11 13:30:00,
2013-02-11 05:35:00,41.5,34.5,30.55,West,271,14.0,21.0,76,0.00,,,0.00,meteohub,2013-02-11 13:35:00,
2013-02-11 05:40:00,41.5,34.5,30.55,SW,221,19.0,23.0,76,0.00,,,0.00,meteohub,2013-02-11 13:40:00,
2013-02-11 05:46:00,41.5,34.5,30.56,SW,226,13.0,23.0,76,0.00,,,0.00,meteohub,2013-02-11 13:46:00,
2013-02-11 05:51:00,41.5,34.5,30.56,WSW,254,13.0,23.0,76,0.00,,,0.00,meteohub,2013-02-11 13:51:00,
2013-02-11 05:56:00,41.5,34.2,30.56,SSW,207,9.0,27.0,75,0.00,,,0.00,meteohub,2013-02-11 13:56:00,
2013-02-11 06:01:00,41.5,34.5,30.56,SW,233,20.0,27.0,76,0.00,,,0.00,meteohub,2013-02-11 14:01:00,
2013-02-11 06:06:00,41.5,34.5,30.56,SW,217,6.0,27.0,76,0.00,,,0.00,meteohub,2013-02-11 14:06:00,
2013-02-11 06:11:00,41.5,34.5,30.56,WNW,285,8.0,20.0,76,0.00,,,0.00,meteohub,2013-02-11 14:11:00,
2013-02-11 06:16:00,41.5,34.5,30.56,West,272,7.0,24.0,76,0.00,,,0.00,meteohub,2013-02-11 14:16:00,
2013-02-11 06:22:00,41.5,34.5,30.56,SW,233,10.0,25.0,76,0.00,,,0.00,meteohub,2013-02-11 14:22:00,
2013-02-11 06:27:00,41.4,34.7,30.56,SW,221,15.0,27.0,77,0.00,,,0.00,meteohub,2013-02-11 14:27:00,
2013-02-11 06:32:00,41.5,34.5,30.56,WSW,251,7.0,27.0,76,0.00,,,0.00,meteohub,2013-02-11 14:32:00,
2013-02-11 06:37:00,41.5,34.5,30.57,West,264,9.0,21.0,76,0.00,,,0.00,meteohub,2013-02-11 14:37:00,
2013-02-11 06:42:00,41.5,34.5,30.57,SW,223,11.0,26.0,76,0.00,,,0.00,meteohub,2013-02-11 14:42:00,
2013-02-11 06:47:00,41.5,34.5,30.57,West,269,6.0,26.0,76,0.00,,,0.00,meteohub,2013-02-11 14:47:00,
2013-02-11 06:52:00,41.5,34.5,30.58,WSW,246,10.0,26.0,76,0.00,,,0.00,meteohub,2013-02-11 14:52:00,
2013-02-11 06:57:00,41.7,34.7,30.57,WSW,252,12.0,21.0,76,0.00,,,0.00,meteohub,2013-02-11 14:57:00,
2013-02-11 07:02:00,41.7,34.3,30.57,SW,221,11.0,21.0,75,0.00,,,0.00,meteohub,2013-02-11 15:02:00,
2013-02-11 07:07:00,41.5,34.2,30.57,SW,218,17.0,20.0,75,0.00,,,0.00,meteohub,2013-02-11 15:07:00,
2013-02-11 07:12:00,41.5,34.5,30.56,SW,230,9.0,24.0,76,0.00,,,0.00,meteohub,2013-02-11 15:12:00,
2013-02-11 07:17:00,41.5,34.5,30.56,NW,306,12.0,25.0,76,0.00,,,0.00,meteohub,2013-02-11 15:17:00,
2013-02-11 07:22:00,41.5,34.2,30.57,WSW,241,17.0,30.0,75,0.00,,,0.00,meteohub,2013-02-11 15:22:00,
2013-02-11 07:27:00,41.7,34.3,30.57,West,272,17.0,30.0,75,0.00,,,0.00,meteohub,2013-02-11 15:27:00,
2013-02-11 07:32:00,41.7,34.3,30.57,WSW,237,7.0,30.0,75,0.00,,,0.00,meteohub,2013-02-11 15:32:00,
2013-02-11 07:37:00,41.7,34.3,30.57,WNW,294,12.0,26.0,75,0.00,,,0.00,meteohub,2013-02-11 15:37:00,
2013-02-11 07:42:00,41.7,34.3,30.58,West,277,10.0,23.0,75,0.00,,,0.00,meteohub,2013-02-11 15:42:00,
2013-02-11 07:47:00,41.7,34.3,30.58,WSW,237,4.0,23.0,75,0.00,,,0.00,meteohub,2013-02-11 15:47:00,
2013-02-11 07:52:00,42.1,34.3,30.58,SSW,207,9.0,27.0,74,0.00,,,0.00,meteohub,2013-02-11 15:52:00,
2013-02-11 07:57:00,42.3,34.2,30.58,WNW,288,11.0,27.0,73,0.00,,,0.00,meteohub,2013-02-11 15:57:00,
2013-02-11 08:02:00,42.4,34.3,30.58,WSW,250,14.0,27.0,73,0.00,,,0.00,meteohub,2013-02-11 16:02:00,
2013-02-11 08:07:00,42.4,34.3,30.58,WSW,253,9.0,23.0,73,0.00,,,0.00,meteohub,2013-02-11 16:07:00,
2013-02-11 08:13:00,42.4,34.3,30.57,WNW,286,9.0,23.0,73,0.00,,,0.00,meteohub,2013-02-11 16:13:00,
2013-02-11 08:18:00,42.6,34.2,30.57,WSW,246,17.0,23.0,72,0.00,,,0.00,meteohub,2013-02-11 16:18:00,
2013-02-11 08:23:00,42.8,34.3,30.58,WNW,288,9.0,23.0,72,0.00,,,0.00,meteohub,2013-02-11 16:23:00,
2013-02-11 08:28:00,43.0,34.2,30.58,SW,221,7.0,23.0,71,0.00,,,0.00,meteohub,2013-02-11 16:28:00,
2013-02-11 08:33:00,43.0,34.5,30.58,NW,310,13.0,23.0,72,0.00,,,0.00,meteohub,2013-02-11 16:33:00,
2013-02-11 08:38:00,43.2,34.7,30.58,West,267,8.0,19.0,72,0.00,,,0.00,meteohub,2013-02-11 16:38:00,
2013-02-11 08:43:00,43.2,34.3,30.58,WSW,250,11.0,21.0,71,0.00,,,0.00,meteohub,2013-02-11 16:43:00,
2013-02-11 08:48:00,43.2,34.7,30.59,SW,233,10.0,21.0,72,0.00,,,0.00,meteohub,2013-02-11 16:48:00,
2013-02-11 08:53:00,43.0,34.5,30.59,WSW,239,12.0,19.0,72,0.00,,,0.00,meteohub,2013-02-11 16:53:00,
2013-02-11 08:58:00,43.2,34.7,30.59,SW,236,4.0,19.0,72,0.00,,,0.00,meteohub,2013-02-11 16:58:00,
2013-02-11 09:03:00,43.3,34.5,30.59,West,276,10.0,20.0,71,0.00,,,0.00,meteohub,2013-02-11 17:03:00,
2013-02-11 09:08:00,43.2,34.7,30.59,SW,214,14.0,20.0,72,0.00,,,0.00,meteohub,2013-02-11 17:08:00,
2013-02-11 09:14:00,43.5,35.1,30.59,WNW,294,4.0,20.0,72,0.00,,,0.00,meteohub,2013-02-11 17:14:00,
2013-02-11 09:19:00,43.7,34.9,30.59,SW,233,5.0,20.0,71,0.00,,,0.00,meteohub,2013-02-11 17:19:00,
2013-02-11 09:24:00,44.1,35.2,30.60,SW,226,6.0,20.0,71,0.00,,,0.00,meteohub,2013-02-11 17:24:00,
2013-02-11 09:29:00,44.1,34.9,30.60,SW,233,10.0,21.0,70,0.00,,,0.00,meteohub,2013-02-11 17:29:00,
2013-02-11 09:34:00,43.9,35.1,30.59,WSW,240,24.0,24.0,71,0.00,,,0.00,meteohub,2013-02-11 17:34:00,
2013-02-11 09:39:00,44.1,35.2,30.59,SW,236,8.0,24.0,71,0.00,,,0.00,meteohub,2013-02-11 17:39:00,
2013-02-11 09:44:00,44.1,35.2,30.59,WSW,239,10.0,24.0,71,0.00,,,0.00,meteohub,2013-02-11 17:44:00,
2013-02-11 09:49:00,44.2,35.1,30.59,SW,234,7.0,24.0,70,0.00,,,0.00,meteohub,2013-02-11 17:49:00,
2013-02-11 09:54:00,44.2,35.1,30.59,West,262,15.0,20.0,70,0.00,,,0.00,meteohub,2013-02-11 17:54:00,
2013-02-11 09:59:00,44.1,34.9,30.59,West,265,8.0,20.0,70,0.00,,,0.00,meteohub,2013-02-11 17:59:00,
2013-02-11 10:04:00,44.2,35.1,30.60,WSW,239,13.0,24.0,70,0.00,,,0.00,meteohub,2013-02-11 18:04:00,
2013-02-11 10:09:00,44.4,35.6,30.59,SW,234,10.0,24.0,71,0.00,,,0.00,meteohub,2013-02-11 18:09:00,
2013-02-11 10:15:00,44.8,35.6,30.60,WSW,255,12.0,24.0,70,0.00,,,0.00,meteohub,2013-02-11 18:15:00,
2013-02-11 10:20:00,44.8,35.6,30.60,WNW,288,5.0,22.0,70,0.00,,,0.00,meteohub,2013-02-11 18:20:00,
2013-02-11 10:25:00,44.8,35.6,30.60,WSW,241,11.0,21.0,70,0.00,,,0.00,meteohub,2013-02-11 18:25:00,
2013-02-11 10:30:00,45.0,35.8,30.60,SE,139,4.0,24.0,70,0.00,,,0.00,meteohub,2013-02-11 18:30:00,
2013-02-11 10:35:00,45.0,35.8,30.61,WSW,249,14.0,22.0,70,0.00,,,0.00,meteohub,2013-02-11 18:35:00,
2013-02-11 10:40:00,44.8,35.6,30.60,NNE,14,1.0,22.0,70,0.00,,,0.00,meteohub,2013-02-11 18:40:00,
2013-02-11 10:45:00,44.8,35.6,30.60,SSW,202,5.0,22.0,70,0.00,,,0.00,meteohub,2013-02-11 18:45:00,
2013-02-11 10:50:00,44.6,35.4,30.61,SSW,213,0.0,22.0,70,0.00,,,0.00,meteohub,2013-02-11 18:50:00,
2013-02-11 10:55:00,44.6,35.4,30.61,WSW,240,7.0,17.0,70,0.00,,,0.00,meteohub,2013-02-11 18:55:00,
2013-02-11 11:00:00,44.8,36.0,30.61,SSW,207,2.0,17.0,71,0.00,,,0.00,meteohub,2013-02-11 19:00:00,
2013-02-11 11:05:00,45.1,35.6,30.61,West,275,4.0,14.0,69,0.00,,,0.00,meteohub,2013-02-11 19:05:00,
2013-02-11 11:11:00,45.7,36.5,30.61,WSW,242,4.0,14.0,70,0.00,,,0.00,meteohub,2013-02-11 19:11:00,
2013-02-11 11:16:00,45.7,36.1,30.61,SW,230,20.0,20.0,69,0.00,,,0.00,meteohub,2013-02-11 19:16:00,
2013-02-11 11:21:00,45.7,36.1,30.61,SSE,161,2.0,20.0,69,0.00,,,0.00,meteohub,2013-02-11 19:21:00,
2013-02-11 11:26:00,45.7,36.1,30.61,SW,221,8.0,20.0,69,0.00,,,0.00,meteohub,2013-02-11 19:26:00,
2013-02-11 11:31:00,45.7,36.1,30.61,West,275,6.0,20.0,69,0.00,,,0.00,meteohub,2013-02-11 19:31:00,
2013-02-11 11:36:00,45.9,36.3,30.61,SW,235,11.0,18.0,69,0.00,,,0.00,meteohub,2013-02-11 19:36:00,
2013-02-11 11:41:00,46.0,36.5,30.61,SW,227,9.0,23.0,69,0.00,,,0.00,meteohub,2013-02-11 19:41:00,
2013-02-11 11:46:00,46.4,36.5,30.61,SW,229,4.0,23.0,68,0.00,,,0.00,meteohub,2013-02-11 19:46:00,
2013-02-11 11:51:00,46.2,36.0,30.60,SSW,200,6.0,23.0,67,0.00,,,0.00,meteohub,2013-02-11 19:51:00,
2013-02-11 11:56:00,46.0,36.1,30.60,SSW,202,5.0,24.0,68,0.00,,,0.00,meteohub,2013-02-11 19:56:00,
2013-02-11 12:01:00,46.2,36.7,30.60,SW,225,14.0,24.0,69,0.00,,,0.00,meteohub,2013-02-11 20:01:00,
2013-02-11 12:06:00,46.0,36.1,30.60,SW,234,7.0,24.0,68,0.00,,,0.00,meteohub,2013-02-11 20:06:00,
2013-02-11 12:12:00,45.9,36.3,30.60,WSW,240,10.0,22.0,69,0.00,,,0.00,meteohub,2013-02-11 20:12:00,
2013-02-11 12:17:00,46.0,36.9,30.60,WSW,237,8.0,22.0,70,0.00,,,0.00,meteohub,2013-02-11 20:17:00,
2013-02-11 12:22:00,46.2,36.7,30.60,SW,236,10.0,22.0,69,0.00,,,0.00,meteohub,2013-02-11 20:22:00,
2013-02-11 12:27:00,46.0,36.5,30.60,SSW,207,12.0,17.0,69,0.00,,,0.00,meteohub,2013-02-11 20:27:00,
2013-02-11 12:32:00,45.7,36.5,30.61,SW,214,8.0,21.0,70,0.00,,,0.00,meteohub,2013-02-11 20:32:00,
2013-02-11 12:37:00,45.7,36.5,30.60,WSW,255,14.0,21.0,70,0.00,,,0.00,meteohub,2013-02-11 20:37:00,
2013-02-11 12:42:00,45.3,36.5,30.61,WSW,252,14.0,23.0,71,0.00,,,0.00,meteohub,2013-02-11 20:42:00,
2013-02-11 12:47:00,45.3,36.5,30.61,WSW,255,12.0,23.0,71,0.00,,,0.00,meteohub,2013-02-11 20:47:00,
2013-02-11 12:52:00,45.5,37.0,30.61,WSW,246,8.0,23.0,72,0.00,,,0.00,meteohub,2013-02-11 20:52:00,
2013-02-11 12:57:00,45.0,36.5,30.61,SW,227,15.0,23.0,72,0.00,,,0.00,meteohub,2013-02-11 20:57:00,
2013-02-11 13:02:00,44.6,36.9,30.61,SW,225,5.0,19.0,74,0.00,,,0.00,meteohub,2013-02-11 21:02:00,
2013-02-11 13:07:00,44.8,36.7,30.61,West,268,16.0,19.0,73,0.00,,,0.00,meteohub,2013-02-11 21:07:00,
2013-02-11 13:12:00,44.8,36.7,30.61,WSW,239,16.0,19.0,73,0.00,,,0.00,meteohub,2013-02-11 21:12:00,
2013-02-11 13:17:00,45.0,36.9,30.61,SW,226,9.0,19.0,73,0.00,,,0.00,meteohub,2013-02-11 21:17:00,
2013-02-11 13:22:00,44.8,36.7,30.61,SSW,207,7.0,19.0,73,0.00,,,0.00,meteohub,2013-02-11 21:22:00,
2013-02-11 13:27:00,44.8,37.0,30.61,SW,235,12.0,19.0,74,0.00,,,0.00,meteohub,2013-02-11 21:27:00,
2013-02-11 13:32:00,44.8,36.7,30.61,WNW,302,8.0,22.0,73,0.00,,,0.00,meteohub,2013-02-11 21:32:00,
2013-02-11 13:37:00,44.8,37.0,30.61,SW,226,11.0,22.0,74,0.00,,,0.00,meteohub,2013-02-11 21:37:00,
2013-02-11 13:42:00,44.8,36.7,30.61,SW,214,10.0,22.0,73,0.00,,,0.00,meteohub,2013-02-11 21:42:00,
2013-02-11 13:47:00,45.1,37.0,30.61,SW,225,12.0,19.0,73,0.00,,,0.00,meteohub,2013-02-11 21:47:00,
2013-02-11 13:52:00,45.3,37.2,30.61,WNW,283,4.0,21.0,73,0.00,,,0.00,meteohub,2013-02-11 21:52:00,
2013-02-11 13:57:00,45.3,37.2,30.60,WSW,256,15.0,21.0,73,0.00,,,0.00,meteohub,2013-02-11 21:57:00,
2013-02-11 14:02:00,45.3,37.2,30.60,SW,234,14.0,19.0,73,0.00,,,0.00,meteohub,2013-02-11 22:02:00,
2013-02-11 14:07:00,45.3,36.9,30.60,SW,225,7.0,19.0,72,0.00,,,0.00,meteohub,2013-02-11 22:07:00,
2013-02-11 14:12:00,45.3,37.2,30.59,SW,229,10.0,19.0,73,0.00,,,0.00,meteohub,2013-02-11 22:12:00,
2013-02-11 14:18:00,45.3,37.2,30.59,WSW,255,7.0,19.0,73,0.00,,,0.00,meteohub,2013-02-11 22:18:00,
2013-02-11 14:23:00,45.5,37.0,30.59,SSW,213,11.0,20.0,72,0.00,,,0.00,meteohub,2013-02-11 22:23:00,
2013-02-11 14:28:00,45.5,37.4,30.60,West,264,7.0,20.0,73,0.00,,,0.00,meteohub,2013-02-11 22:28:00,
2013-02-11 14:33:00,45.7,37.6,30.60,WSW,253,4.0,20.0,73,0.00,,,0.00,meteohub,2013-02-11 22:33:00,
2013-02-11 14:38:00,45.7,37.6,30.59,West,268,12.0,20.0,73,0.00,,,0.00,meteohub,2013-02-11 22:38:00,
2013-02-11 14:43:00,45.7,37.6,30.59,SW,234,9.0,23.0,73,0.00,,,0.00,meteohub,2013-02-11 22:43:00,
2013-02-11 14:48:00,45.9,37.4,30.58,SSW,199,11.0,23.0,72,0.00,,,0.00,meteohub,2013-02-11 22:48:00,
2013-02-11 14:53:00,45.7,37.2,30.59,SW,225,15.0,23.0,72,0.00,,,0.00,meteohub,2013-02-11 22:53:00,
2013-02-11 14:58:00,45.9,37.4,30.59,WSW,253,17.0,22.0,72,0.00,,,0.00,meteohub,2013-02-11 22:58:00,
2013-02-11 15:03:00,45.7,37.2,30.60,SW,222,8.0,22.0,72,0.00,,,0.00,meteohub,2013-02-11 23:03:00,
2013-02-11 15:08:00,45.7,37.6,30.60,WNW,300,3.0,22.0,73,0.00,,,0.00,meteohub,2013-02-11 23:08:00,
2013-02-11 15:14:00,45.7,37.6,30.60,SSW,206,6.0,22.0,73,0.00,,,0.00,meteohub,2013-02-11 23:14:00,
2013-02-11 15:19:00,45.7,37.6,30.60,WSW,248,6.0,22.0,73,0.00,,,0.00,meteohub,2013-02-11 23:19:00,
2013-02-11 15:24:00,45.3,37.2,30.61,West,260,4.0,17.0,73,0.00,,,0.00,meteohub,2013-02-11 23:24:00,
2013-02-11 15:29:00,45.3,37.2,30.61,WSW,250,5.0,17.0,73,0.00,,,0.00,meteohub,2013-02-11 23:29:00,
2013-02-11 15:34:00,45.3,37.6,30.61,SSW,205,4.0,15.0,74,0.00,,,0.00,meteohub,2013-02-11 23:34:00,
2013-02-11 15:39:00,45.1,37.4,30.61,SW,234,12.0,15.0,74,0.00,,,0.00,meteohub,2013-02-11 23:39:00,
2013-02-11 15:44:00,45.1,37.4,30.61,SW,229,6.0,15.0,74,0.00,,,0.00,meteohub,2013-02-11 23:44:00,
2013-02-11 15:49:00,45.1,37.8,30.61,WNW,283,4.0,22.0,75,0.00,,,0.00,meteohub,2013-02-11 23:49:00,
2013-02-11 15:54:00,45.1,37.8,30.61,WSW,238,6.0,22.0,75,0.00,,,0.00,meteohub,2013-02-11 23:54:00,
2013-02-11 15:59:00,45.0,37.6,30.61,West,271,8.0,10.0,75,0.00,,,0.00,meteohub,2013-02-11 23:59:00,
2013-02-11 16:04:00,44.8,37.8,30.61,WSW,250,5.0,14.0,76,0.00,,,0.00,meteohub,2013-02-12 00:04:00,
2013-02-11 16:10:00,44.6,37.6,30.61,WSW,250,6.0,14.0,76,0.00,,,0.00,meteohub,2013-02-12 00:10:00,
2013-02-11 16:15:00,44.4,37.6,30.61,West,264,5.0,14.0,77,0.00,,,0.00,meteohub,2013-02-12 00:15:00,
2013-02-11 16:20:00,44.4,37.6,30.61,WNW,288,7.0,12.0,77,0.00,,,0.00,meteohub,2013-02-12 00:20:00,
2013-02-11 16:25:00,44.2,37.6,30.61,WSW,242,5.0,19.0,77,0.00,,,0.00,meteohub,2013-02-12 00:25:00,
2013-02-11 16:30:00,44.4,37.6,30.61,WSW,252,8.0,12.0,77,0.00,,,0.00,meteohub,2013-02-12 00:30:00,
2013-02-11 16:35:00,44.2,37.8,30.61,SW,234,12.0,12.0,78,0.00,,,0.00,meteohub,2013-02-12 00:35:00,
2013-02-11 16:40:00,44.2,37.8,30.61,SW,222,5.0,17.0,78,0.00,,,0.00,meteohub,2013-02-12 00:40:00,
2013-02-11 16:45:00,44.2,37.8,30.62,SW,232,9.0,17.0,78,0.00,,,0.00,meteohub,2013-02-12 00:45:00,
2013-02-11 16:50:00,44.2,37.8,30.61,WSW,242,11.0,17.0,78,0.00,,,0.00,meteohub,2013-02-12 00:50:00,
2013-02-11 16:56:00,44.2,37.8,30.61,SW,230,7.0,12.0,78,0.00,,,0.00,meteohub,2013-02-12 00:56:00,
2013-02-11 17:01:00,44.2,37.8,30.61,WSW,238,4.0,15.0,78,0.00,,,0.00,meteohub,2013-02-12 01:01:00,
2013-02-11 17:06:00,44.2,37.8,30.61,WNW,288,2.0,15.0,78,0.00,,,0.00,meteohub,2013-02-12 01:06:00,
2013-02-11 17:11:00,44.1,37.9,30.62,WSW,250,5.0,15.0,79,0.00,,,0.00,meteohub,2013-02-12 01:11:00,
2013-02-11 17:16:00,44.1,37.9,30.62,SSW,195,6.0,14.0,79,0.00,,,0.00,meteohub,2013-02-12 01:16:00,
2013-02-11 17:21:00,43.9,38.1,30.62,WSW,250,7.0,16.0,80,0.00,,,0.00,meteohub,2013-02-12 01:21:00,
2013-02-11 17:26:00,43.9,38.1,30.62,WSW,242,3.0,16.0,80,0.00,,,0.00,meteohub,2013-02-12 01:26:00,
2013-02-11 17:31:00,43.9,38.1,30.62,WSW,250,6.0,13.0,80,0.00,,,0.00,meteohub,2013-02-12 01:31:00,
2013-02-11 17:36:00,43.9,38.1,30.61,WSW,245,5.0,14.0,80,0.00,,,0.00,meteohub,2013-02-12 01:36:00,
2013-02-11 17:41:00,43.9,38.5,30.61,WSW,237,5.0,14.0,81,0.00,,,0.00,meteohub,2013-02-12 01:41:00,
2013-02-11 17:46:00,43.7,38.3,30.61,WSW,255,11.0,14.0,81,0.00,,,0.00,meteohub,2013-02-12 01:46:00,
2013-02-11 17:51:00,43.5,38.1,30.61,WSW,241,7.0,15.0,81,0.00,,,0.00,meteohub,2013-02-12 01:51:00,
2013-02-11 17:57:00,43.5,38.5,30.61,SW,214,4.0,15.0,82,0.00,,,0.00,meteohub,2013-02-12 01:57:00,
2013-02-11 18:02:00,43.5,38.5,30.62,WNW,286,6.0,16.0,82,0.00,,,0.00,meteohub,2013-02-12 02:02:00,
2013-02-11 18:07:00,43.5,38.5,30.62,SW,218,4.0,17.0,82,0.00,,,0.00,meteohub,2013-02-12 02:07:00,
2013-02-11 18:12:00,43.5,38.5,30.61,West,269,5.0,17.0,82,0.00,,,0.00,meteohub,2013-02-12 02:12:00,
2013-02-11 18:17:00,43.3,38.5,30.62,WSW,242,11.0,17.0,83,0.00,,,0.00,meteohub,2013-02-12 02:17:00,
2013-02-11 18:22:00,43.5,38.7,30.62,WSW,244,10.0,14.0,83,0.00,,,0.00,meteohub,2013-02-12 02:22:00,
2013-02-11 18:27:00,43.5,38.5,30.62,WSW,248,7.0,13.0,82,0.00,,,0.00,meteohub,2013-02-12 02:27:00,
2013-02-11 18:32:00,43.5,38.7,30.62,WNW,288,1.0,13.0,83,0.00,,,0.00,meteohub,2013-02-12 02:32:00,
2013-02-11 18:37:00,43.5,38.7,30.62,South,182,1.0,13.0,83,0.00,,,0.00,meteohub,2013-02-12 02:37:00,
2013-02-11 18:42:00,43.3,38.5,30.62,SSW,200,3.0,13.0,83,0.00,,,0.00,meteohub,2013-02-12 02:42:00,
2013-02-11 18:48:00,43.5,38.7,30.62,WSW,246,11.0,12.0,83,0.00,,,0.00,meteohub,2013-02-12 02:48:00,
2013-02-11 18:53:00,43.5,38.7,30.62,SW,226,5.0,12.0,83,0.00,,,0.00,meteohub,2013-02-12 02:53:00,
2013-02-11 18:58:00,43.5,38.7,30.62,SW,236,8.0,12.0,83,0.00,,,0.00,meteohub,2013-02-12 02:58:00,
2013-02-11 19:03:00,43.7,38.8,30.61,SSW,210,7.0,12.0,83,0.00,,,0.00,meteohub,2013-02-12 03:03:00,
2013-02-11 19:08:00,43.9,39.0,30.61,WNW,296,6.0,14.0,83,0.00,,,0.00,meteohub,2013-02-12 03:08:00,
2013-02-11 19:13:00,43.7,39.2,30.62,WSW,253,10.0,19.0,84,0.00,,,0.00,meteohub,2013-02-12 03:13:00,
2013-02-11 19:18:00,43.7,39.2,30.62,WSW,248,6.0,19.0,84,0.00,,,0.00,meteohub,2013-02-12 03:18:00,
2013-02-11 19:23:00,43.7,39.2,30.62,West,261,6.0,19.0,84,0.00,,,0.00,meteohub,2013-02-12 03:23:00,
2013-02-11 19:28:00,43.9,39.4,30.62,SSW,207,5.0,17.0,84,0.00,,,0.00,meteohub,2013-02-12 03:28:00,
2013-02-11 19:33:00,43.7,39.2,30.62,West,259,3.0,20.0,84,0.00,,,0.00,meteohub,2013-02-12 03:33:00,
2013-02-11 19:38:00,43.5,39.4,30.62,WSW,242,13.0,20.0,85,0.00,,,0.00,meteohub,2013-02-12 03:38:00,
2013-02-11 19:43:00,43.7,39.2,30.62,WSW,250,10.0,17.0,84,0.00,,,0.00,meteohub,2013-02-12 03:43:00,
2013-02-11 19:48:00,43.9,39.4,30.62,WSW,255,9.0,17.0,84,0.00,,,0.00,meteohub,2013-02-12 03:48:00,
2013-02-11 19:54:00,43.9,39.4,30.63,SW,232,4.0,18.0,84,0.00,,,0.00,meteohub,2013-02-12 03:54:00,
2013-02-11 19:59:00,43.9,39.4,30.63,WNW,292,6.0,18.0,84,0.00,,,0.00,meteohub,2013-02-12 03:59:00,
2013-02-11 20:04:00,43.9,39.4,30.63,SW,233,5.0,18.0,84,0.00,,,0.00,meteohub,2013-02-12 04:04:00,
2013-02-11 20:09:00,43.9,39.7,30.63,West,259,5.0,13.0,85,0.00,,,0.00,meteohub,2013-02-12 04:09:00,
2013-02-11 20:14:00,43.9,39.7,30.63,WSW,239,6.0,16.0,85,0.00,,,0.00,meteohub,2013-02-12 04:14:00,
2013-02-11 20:19:00,43.9,39.7,30.63,West,263,6.0,16.0,85,0.00,,,0.00,meteohub,2013-02-12 04:19:00,
2013-02-11 20:24:00,43.7,39.6,30.63,West,261,7.0,14.0,85,0.00,,,0.00,meteohub,2013-02-12 04:24:00,
2013-02-11 20:29:00,43.7,39.7,30.63,WSW,240,8.0,15.0,86,0.00,,,0.00,meteohub,2013-02-12 04:29:00,
2013-02-11 20:34:00,43.9,39.9,30.63,SW,227,10.0,15.0,86,0.00,,,0.00,meteohub,2013-02-12 04:34:00,
2013-02-11 20:39:00,43.9,39.9,30.62,WSW,244,5.0,17.0,86,0.00,,,0.00,meteohub,2013-02-12 04:39:00,
2013-02-11 20:44:00,43.9,39.9,30.63,WSW,253,5.0,17.0,86,0.00,,,0.00,meteohub,2013-02-12 04:44:00,
2013-02-11 20:49:00,43.9,39.9,30.63,SW,236,9.0,16.0,86,0.00,,,0.00,meteohub,2013-02-12 04:49:00,
2013-02-11 20:55:00,43.7,39.7,30.63,WSW,244,11.0,16.0,86,0.00,,,0.00,meteohub,2013-02-12 04:55:00,
2013-02-11 21:00:00,43.7,39.7,30.62,SW,230,10.0,14.0,86,0.00,,,0.00,meteohub,2013-02-12 05:00:00,
2013-02-11 21:02:00,43.7,39.7,30.62,WSW,257,7.0,14.0,86,0.00,,,0.00,meteohub,2013-02-12 05:02:00,
2013-02-11 21:05:00,43.7,40.1,30.63,SW,219,9.0,14.0,87,0.00,,,0.00,meteohub,2013-02-12 05:05:00,
2013-02-11 21:06:00,43.7,40.1,30.63,WSW,250,9.0,15.0,87,0.00,,,0.00,meteohub,2013-02-12 05:06:00,
2013-02-11 21:11:00,43.7,40.1,30.63,WSW,242,8.0,15.0,87,0.00,,,0.00,meteohub,2013-02-12 05:11:00,
2013-02-11 21:16:00,43.5,39.9,30.63,SW,223,4.0,14.0,87,0.00,,,0.00,meteohub,2013-02-12 05:16:00,
2013-02-11 21:21:00,43.7,40.1,30.63,SW,226,7.0,14.0,87,0.00,,,0.00,meteohub,2013-02-12 05:21:00,
2013-02-11 21:26:00,43.9,39.9,30.63,SSW,213,5.0,14.0,86,0.00,,,0.00,meteohub,2013-02-12 05:26:00,
2013-02-11 21:31:00,43.9,40.3,30.63,SW,226,7.0,12.0,87,0.00,,,0.00,meteohub,2013-02-12 05:31:00,
2013-02-11 21:36:00,43.9,40.3,30.63,WSW,242,6.0,13.0,87,0.00,,,0.00,meteohub,2013-02-12 05:36:00,
2013-02-11 21:41:00,43.9,40.3,30.63,SW,226,6.0,13.0,87,0.00,,,0.00,meteohub,2013-02-12 05:41:00,
2013-02-11 21:46:00,43.9,39.9,30.63,SW,223,6.0,13.0,86,0.00,,,0.00,meteohub,2013-02-12 05:46:00,
2013-02-11 21:51:00,44.1,40.1,30.63,SW,228,6.0,12.0,86,0.00,,,0.00,meteohub,2013-02-12 05:51:00,
2013-02-11 21:57:00,44.1,40.1,30.63,SW,221,11.0,12.0,86,0.00,,,0.00,meteohub,2013-02-12 05:57:00,
2013-02-11 22:02:00,44.2,40.3,30.62,SSW,199,7.0,16.0,86,0.00,,,0.00,meteohub,2013-02-12 06:02:00,
2013-02-11 22:07:00,44.2,40.3,30.63,West,262,5.0,16.0,86,0.00,,,0.00,meteohub,2013-02-12 06:07:00,
2013-02-11 22:12:00,44.2,40.3,30.63,SSW,199,5.0,16.0,86,0.00,,,0.00,meteohub,2013-02-12 06:12:00,
2013-02-11 22:17:00,44.2,40.3,30.63,West,271,7.0,16.0,86,0.00,,,0.00,meteohub,2013-02-12 06:17:00,
2013-02-11 22:22:00,44.2,40.3,30.63,SW,222,9.0,16.0,86,0.00,,,0.00,meteohub,2013-02-12 06:22:00,
2013-02-11 22:27:00,44.2,40.3,30.63,SW,220,5.0,16.0,86,0.00,,,0.00,meteohub,2013-02-12 06:27:00,
2013-02-11 22:32:00,44.2,40.3,30.63,SW,235,5.0,16.0,86,0.00,,,0.00,meteohub,2013-02-12 06:32:00,
2013-02-11 22:37:00,44.2,40.1,30.64,SSW,205,16.0,16.0,85,0.00,,,0.00,meteohub,2013-02-12 06:37:00,
2013-02-11 22:42:00,44.4,40.3,30.64,SW,225,9.0,16.0,85,0.00,,,0.00,meteohub,2013-02-12 06:42:00,
2013-02-11 22:47:00,44.4,40.3,30.64,SSW,198,4.0,16.0,85,0.00,,,0.00,meteohub,2013-02-12 06:47:00,
2013-02-11 22:52:00,44.4,40.5,30.64,SW,219,7.0,16.0,86,0.00,,,0.00,meteohub,2013-02-12 06:52:00,
2013-02-11 22:58:00,44.4,40.5,30.64,WSW,245,10.0,13.0,86,0.00,,,0.00,meteohub,2013-02-12 06:58:00,
2013-02-11 23:03:00,44.4,40.3,30.63,SSW,194,10.0,14.0,85,0.00,,,0.00,meteohub,2013-02-12 07:03:00,
2013-02-11 23:08:00,44.4,40.5,30.64,WSW,246,9.0,18.0,86,0.00,,,0.00,meteohub,2013-02-12 07:08:00,
2013-02-11 23:13:00,44.4,40.5,30.64,WSW,246,10.0,18.0,86,0.00,,,0.00,meteohub,2013-02-12 07:13:00,
2013-02-11 23:18:00,44.4,40.5,30.64,SW,230,8.0,18.0,86,0.00,,,0.00,meteohub,2013-02-12 07:18:00,
2013-02-11 23:23:00,44.4,40.5,30.64,SW,218,12.0,17.0,86,0.00,,,0.00,meteohub,2013-02-12 07:23:00,
2013-02-11 23:28:00,44.4,40.5,30.64,WSW,250,6.0,15.0,86,0.00,,,0.00,meteohub,2013-02-12 07:28:00,
2013-02-11 23:33:00,44.4,40.5,30.64,WSW,250,9.0,16.0,86,0.00,,,0.00,meteohub,2013-02-12 07:33:00,
2013-02-11 23:38:00,44.4,40.5,30.64,WNW,290,7.0,16.0,86,0.00,,,0.00,meteohub,2013-02-12 07:38:00,
2013-02-11 23:43:00,44.4,40.5,30.64,SSW,212,6.0,16.0,86,0.00,,,0.00,meteohub,2013-02-12 07:43:00,
2013-02-11 23:48:00,44.4,40.5,30.64,SSW,213,7.0,16.0,86,0.00,,,0.00,meteohub,2013-02-12 07:48:00,
2013-02-11 23:53:00,44.4,40.5,30.64,SW,227,5.0,14.0,86,0.00,,,0.00,meteohub,2013-02-12 07:53:00,
2013-02-11 23:59:00,44.4,40.5,30.65,SW,229,16.0,16.0,86,0.00,,,0.00,meteohub,2013-02-12 07:59:00,